QPF
0.03 0.03 0.03 0.02 0.02 0.02 0.02 0.03 0.02 0.03 0.03 0.03 0.02 0.02 0.03 0.02 0.02 0.02 0.02 0.02 0.04 0.04 0.05 0.05 0.04 0.04 0.06 0.07 0.07 0.06 0.05 0.05 0.06 0.07 0.08 0.10 0.09 0.07 0.05 0.05 0.05 0.06 0.06
0.02 0.03 0.03 0.03 0.02 0.02 0.01 0.02 0.02 0.02 0.01 0.01 0.02 0.03 0.03 0.02 0.02 0.02 0.02 0.01 0.02 0.03 0.03 0.04 0.04 0.04 0.05 0.06 0.06 0.06 0.05 0.04 0.04 0.05 0.06 0.07 0.11 0.10 0.08 0.07 0.06 0.06 0.07
0.03 0.02 0.02 0.03 0.02 0.02 0.02 0.02 0.03 0.02 0.01 0.01 0.02 0.03 0.04 0.03 0.03 0.04 0.03 0.02 0.01 0.01 0.03 0.03 0.03 0.03 0.04 0.05 0.06 0.05 0.05 0.04 0.03 0.03 0.06 0.06 0.08 0.09 0.09 0.07 0.06 0.05 0.05
0.04 0.04 0.03 0.03 0.02 0.02 0.02 0.03 0.03 0.02 0.02 0.02 0.03 0.03 0.04 0.04 0.04 0.04 0.04 0.03 0.01 0.01 0.02 0.03 0.02 0.02 0.02 0.03 0.05 0.05 0.04 0.04 0.04 0.02 0.04 0.05 0.05 0.06 0.06 0.06 0.06 0.04 0.03
0.05 0.06 0.04 0.04 0.03 0.03 0.02 0.03 0.03 0.02 0.02 0.02 0.03 0.04 0.04 0.03 0.03 0.03 0.03 0.02 0.01 0.01 0.01 0.02 0.03 0.03 0.04 0.04 0.05 0.05 0.05 0.05 0.04 0.03 0.03 0.05 0.07 0.06 0.07 0.07 0.06 0.05 0.03
0.05 0.06 0.05 0.04 0.05 0.04 0.04 0.04 0.04 0.04 0.03 0.03 0.04 0.05 0.06 0.04 0.02 0.02 0.03 0.02 0.01 0.01 0.00 0.01 0.02 0.02 0.03 0.04 0.05 0.05 0.05 0.06 0.05 0.04 0.03 0.07 0.10 0.09 0.09 0.10 0.08 0.07 0.04
0.06 0.07 0.07 0.06 0.06 0.05 0.04 0.04 0.04 0.03 0.03 0.03 0.04 0.06 0.06 0.03 0.02 0.02 0.02 0.03 0.02 0.01 0.01 0.01 0.01 0.01 0.01 0.02 0.03 0.04 0.03 0.04 0.05 0.05 0.04 0.04 0.05 0.06 0.06 0.07 0.09 0.07 0.05
0.10 0.09 0.09 0.07 0.07 0.05 0.04 0.03 0.02 0.02 0.02 0.04 0.05 0.06 0.05 0.03 0.02 0.02 0.02 0.03 0.02 0.02 0.02 0.01 0.01 0.01 0.01 0.01 0.01 0.02 0.02 0.03 0.03 0.05 0.05 0.06 0.06 0.04 0.04 0.05 0.07 0.09 0.07
0.11 0.10 0.11 0.10 0.09 0.07 0.05 0.03 0.02 0.02 0.02 0.03 0.04 0.07 0.06 0.03 0.01 0.01 0.02 0.02 0.02 0.02 0.02 0.02 0.02 0.01 0.01 0.01 0.01 0.01 0.01 0.02 0.03 0.04 0.04 0.05 0.06 0.07 0.06 0.05 0.05 0.07 0.08
0.10 0.07 0.06 0.07 0.08 0.08 0.07 0.05 0.04 0.03 0.03 0.03 0.04 0.05 0.05 0.02 0.01 0.01 0.01 0.01 0.01 0.01 0.02 0.03 0.03 0.02 0.01 0.01 0.01 0.01 0.01 0.02 0.02 0.03 0.04 0.04 0.04 0.05 0.08 0.09 0.07 0.06 0.08
0.08 0.05 0.05 0.05 0.04 0.05 0.06 0.06 0.06 0.05 0.05 0.05 0.04 0.04 0.04 0.04 0.02 0.01 0.01 0.01 0.01 0.01 0.02 0.02 0.03 0.03 0.02 0.02 0.02 0.02 0.02 0.02 0.02 0.03 0.03 0.04 0.03 0.03 0.05 0.08 0.12 0.10 0.07
0.06 0.05 0.05 0.05 0.05 0.05 0.04 0.05 0.05 0.06 0.07 0.06 0.04 0.03 0.03 0.04 0.04 0.03 0.02 0.02 0.02 0.02 0.03 0.03 0.03 0.03 0.03 0.03 0.03 0.02 0.02 0.02 0.02 0.02 0.02 0.02 0.02 0.02 0.02 0.03 0.05 0.09 0.10
0.03 0.03 0.04 0.04 0.03 0.03 0.03 0.04 0.04 0.04 0.05 0.06 0.05 0.05 0.04 0.04 0.05 0.05 0.04 0.03 0.03 0.03 0.04 0.03 0.03 0.04 0.05 0.06 0.05 0.04 0.03 0.02 0.02 0.02 0.02 0.02 0.02 0.02 0.03 0.02 0.03 0.05 0.10
0.02 0.03 0.03 0.03 0.02 0.02 0.03 0.04 0.04 0.04 0.04 0.05 0.04 0.04 0.04 0.04 0.04 0.04 0.05 0.04 0.04 0.04 0.04 0.04 0.03 0.03 0.04 0.06 0.07 0.06 0.03 0.03 0.03 0.02 0.02 0.02 0.02 0.02 0.03 0.04 0.06 0.06 0.06
0.02 0.03 0.03 0.03 0.02 0.03 0.04 0.04 0.03 0.03 0.04 0.05 0.04 0.04 0.04 0.04 0.04 0.04 0.04 0.05 0.05 0.05 0.05 0.03 0.03 0.04 0.05 0.04 0.04 0.04 0.04 0.04 0.03 0.02 0.02 0.02 0.02 0.03 0.04 0.04 0.06 0.07 0.05
0.03 0.03 0.03 0.02 0.03 0.03 0.03 0.03 0.02 0.03 0.03 0.03 0.03 0.04 0.04 0.05 0.05 0.05 0.05 0.05 0.05 0.05 0.06 0.04 0.03 0.04 0.05 0.04 0.03 0.03 0.03 0.04 0.04 0.03 0.02 0.02 0.02 0.02 0.03 0.03 0.05 0.06 0.05
0.03 0.03 0.03 0.03 0.03 0.02 0.02 0.02 0.02 0.03 0.03 0.02 0.02 0.03 0.03 0.03 0.04 0.05 0.06 0.06 0.06 0.06 0.06 0.06 0.05 0.05 0.04 0.04 0.02 0.02 0.02 0.02 0.04 0.04 0.04 0.03 0.02 0.02 0.02 0.02 0.03 0.03 0.04
0.02 0.03 0.03 0.03 0.03 0.02 0.02 0.02 0.01 0.02 0.02 0.02 0.02 0.03 0.03 0.03 0.03 0.03 0.04 0.05 0.05 0.05 0.05 0.05 0.05 0.05 0.05 0.04 0.03 0.02 0.02 0.02 0.02 0.03 0.03 0.03 0.02 0.02 0.01 0.02 0.02 0.02 0.03
0.03 0.03 0.03 0.02 0.02 0.02 0.02 0.02 0.02 0.02 0.02 0.02 0.02 0.02 0.02 0.03 0.04 0.03 0.03 0.03 0.04 0.05 0.04 0.04 0.04 0.04 0.04 0.05 0.05 0.04 0.03 0.03 0.03 0.03 0.03 0.03 0.03 0.03 0.03 0.02 0.02 0.02 0.02
0.02 0.02 0.02 0.02 0.02 0.02 0.01 0.01 0.02 0.02 0.02 0.02 0.02 0.02 0.03 0.04 0.05 0.06 0.05 0.04 0.04 0.04 0.03 0.03 0.03 0.04 0.03 0.03 0.03 0.03 0.04 0.04 0.04 0.03 0.03 0.03 0.02 0.02 0.02 0.02 0.02 0.03 0.03
0.03 0.02 0.01 0.01 0.01 0.01 0.01 0.01 0.01 0.02 0.02 0.02 0.02 0.02 0.03 0.03 0.04 0.05 0.05 0.05 0.04 0.04 0.03 0.03 0.03 0.03 0.03 0.03 0.02 0.02 0.02 0.02 0.02 0.02 0.02 0.01 0.01 0.00 0.01 0.01 0.01 0.01 0.02
0.03 0.03 0.02 0.01 0.01 0.01 0.02 0.02 0.01 0.02 0.01 0.01 0.01 0.01 0.02 0.02 0.02 0.03 0.03 0.03 0.04 0.04 0.04 0.04 0.03 0.03 0.03 0.03 0.02 0.02 0.02 0.01 0.01 0.01 0.01 0.02 0.01 0.01 0.00 0.00 0.01 0.01 0.01
0.03 0.03 0.03 0.03 0.02 0.01 0.02 0.02 0.02 0.01 0.01 0.00 0.01 0.01 0.01 0.02 0.02 0.02 0.02 0.02 0.02 0.02 0.02 0.03 0.03 0.03 0.03 0.02 0.02 0.01 0.01 0.01 0.01 0.01 0.01 0.01 0.01 0.01 0.01 0.01 0.01 0.02 0.02
0.03 0.03 0.04 0.03 0.02 0.01 0.02 0.01 0.01 0.01 0.01 0.00 0.00 0.01 0.01 0.02 0.02 0.01 0.02 0.02 0.02 0.01 0.01 0.02 0.02 0.02 0.02 0.01 0.01 0.01 0.01 0.00 0.00 0.01 0.01 0.01 0.01 0.01 0.01 0.01 0.02 0.02 0.02
0.01 0.01 0.01 0.01 0.00 0.01 0.01 0.01 0.01 0.01 0.01 0.01 0.01 0.01 0.01 0.02 0.02 0.02 0.02 0.02 0.02 0.02 0.02 0.01 0.02 0.02 0.02 0.02 0.02 0.01 0.01 0.01 0.01 0.01 0.01 0.01 0.01 0.02 0.02 0.02 0.02 0.01 0.02
0.01 0.01 0.01 0.01 0.01 0.01 0.00 0.01 0.01 0.01 0.01 0.01 0.01 0.02 0.02 0.01 0.02 0.02 0.01 0.02 0.02 0.02 0.02 0.02 0.02 0.02 0.02 0.02 0.02 0.01 0.01 0.01 0.01 0.01 0.01 0.02 0.02 0.03 0.03 0.02 0.02 0.02 0.02
MSLP
1011.57 1011.84 1012.02 1012.15 1012.26 1012.41 1012.63 1012.95 1013.37 1013.86 1014.37 1014.87 1015.31 1015.66 1015.91 1016.06 1016.12 1016.11 1016.06 1015.99 1015.91 1015.81 1015.71 1015.60 1015.47 1015.33 1015.19 1015.04 1014.92 1014.82 1014.75 1014.72 1014.73 1014.77 1014.82 1014.89 1014.95 1015.01 1015.06 1015.09 1015.12 1015.15 1015.19
1011.61 1011.89 1012.09 1012.25 1012.40 1012.59 1012.86 1013.22 1013.68 1014.21 1014.77 1015.32 1015.79 1016.17 1016.42 1016.56 1016.58 1016.52 1016.42 1016.28 1016.15 1016.01 1015.89 1015.77 1015.66 1015.53 1015.40 1015.27 1015.15 1015.05 1014.97 1014.93 1014.93 1014.96 1015.01 1015.07 1015.13 1015.17 1015.18 1015.17 1015.14 1015.11 1015.07
1011.66 1011.94 1012.17 1012.37 1012.58 1012.83 1013.16 1013.58 1014.08 1014.66 1015.26 1015.84 1016.35 1016.75 1017.02 1017.16 1017.17 1017.09 1016.95 1016.78 1016.61 1016.45 1016.32 1016.20 1016.09 1015.98 1015.86 1015.74 1015.61 1015.50 1015.41 1015.36 1015.35 1015.37 1015.42 1015.48 1015.53 1015.55 1015.54 1015.48 1015.40 1015.29 1015.18
1011.74 1012.03 1012.30 1012.55 1012.82 1013.14 1013.52 1013.98 1014.52 1015.12 1015.75 1016.36 1016.90 1017.33 1017.63 1017.80 1017.83 1017.76 1017.61 1017.44 1017.26 1017.10 1016.97 1016.85 1016.75 1016.64 1016.53 1016.40 1016.26 1016.13 1016.02 1015.94 1015.91 1015.92 1015.96 1016.01 1016.06 1016.07 1016.04 1015.95 1015.82 1015.65 1015.47
1011.90 1012.19 1012.48 1012.78 1013.11 1013.48 1013.90 1014.38 1014.94 1015.55 1016.18 1016.80 1017.36 1017.83 1018.17 1018.38 1018.47 1018.44 1018.34 1018.19 1018.04 1017.90 1017.77 1017.66 1017.56 1017.45 1017.33 1017.18 1017.02 1016.86 1016.71 1016.60 1016.54 1016.53 1016.55 1016.59 1016.63 1016.63 1016.59 1016.48 1016.32 1016.12 1015.89
1012.14 1012.43 1012.74 1013.08 1013.44 1013.83 1014.27 1014.76 1015.30 1015.89 1016.50 1017.11 1017.69 1018.18 1018.58 1018.86 1019.02 1019.07 1019.03 1018.95 1018.84 1018.73 1018.63 1018.53 1018.43 1018.31 1018.16 1017.99 1017.80 1017.60 1017.42 1017.26 1017.16 1017.11 1017.11 1017.13 1017.15 1017.14 1017.09 1016.98 1016.81 1016.59 1016.34
1012.49 1012.76 1013.08 1013.43 1013.81 1014.21 1014.64 1015.10 1015.60 1016.14 1016.71 1017.30 1017.87 1018.39 1018.84 1019.20 1019.44 1019.58 1019.64 1019.63 1019.58 1019.51 1019.43 1019.34 1019.24 1019.11 1018.95 1018.75 1018.53 1018.29 1018.07 1017.87 1017.72 1017.63 1017.59 1017.57 1017.57 1017.54 1017.48 1017.37 1017.20 1016.99 1016.75
1012.95 1013.20 1013.52 1013.87 1014.25 1014.64 1015.03 1015.44 1015.88 1016.35 1016.86 1017.41 1017.96 1018.49 1018.98 1019.40 1019.73 1019.96 1020.10 1020.17 1020.18 1020.15 1020.09 1020.01 1019.90 1019.77 1019.59 1019.38 1019.13 1018.87 1018.62 1018.38 1018.19 1018.05 1017.96 1017.90 1017.86 1017.80 1017.73 1017.61 1017.45 1017.27 1017.06
1013.52 1013.76 1014.07 1014.42 1014.78 1015.14 1015.49 1015.84 1016.20 1016.59 1017.03 1017.51 1018.03 1018.56 1019.07 1019.53 1019.93 1020.22 1020.43 1020.55 1020.60 1020.60 1020.56 1020.48 1020.38 1020.23 1020.06 1019.84 1019.59 1019.32 1019.05 1018.79 1018.56 1018.38 1018.23 1018.11 1018.02 1017.92 1017.82 1017.69 1017.55 1017.38 1017.21
1014.20 1014.44 1014.75 1015.09 1015.43 1015.76 1016.06 1016.35 1016.63 1016.94 1017.29 1017.70 1018.17 1018.67 1019.17 1019.65 1020.07 1020.40 1020.64 1020.79 1020.87 1020.87 1020.83 1020.76 1020.65 1020.51 1020.33 1020.13 1019.89 1019.63 1019.36 1019.09 1018.83 1018.61 1018.41 1018.23 1018.08 1017.93 1017.79 1017.64 1017.49 1017.35 1017.21
1014.96 1015.21 1015.53 1015.86 1016.20 1016.50 1016.76 1016.99 1017.21 1017.43 1017.71 1018.04 1018.44 1018.88 1019.35 1019.80 1020.21 1020.54 1020.79 1020.94 1021.01 1021.01 1020.96 1020.87 1020.76 1020.62 1020.46 1020.28 1020.06 1019.82 1019.56 1019.28 1019.01 1018.75 1018.50 1018.27 1018.05 1017.85 1017.66 1017.48 1017.32 1017.18 1017.07
1015.77 1016.05 1016.38 1016.72 1017.05 1017.34 1017.57 1017.76 1017.91 1018.07 1018.27 1018.53 1018.85 1019.22 1019.63 1020.03 1020.40 1020.70 1020.91 1021.04 1021.08 1021.06 1021.00 1020.90 1020.78 1020.65 1020.50 1020.33 1020.13 1019.91 1019.66 1019.38 1019.10 1018.80 1018.51 1018.23 1017.96 1017.70 1017.47 1017.26 1017.08 1016.93 1016.82
1016.59 1016.90 1017.24 1017.60 1017.93 1018.21 1018.42 1018.58 1018.70 1018.81 1018.94 1019.13 1019.37 1019.67 1020.01 1020.34 1020.65 1020.89 1021.06 1021.15 1021.16 1021.11 1021.02 1020.91 1020.79 1020.65 1020.50 1020.34 1020.15 1019.93 1019.67 1019.39 1019.08 1018.76 1018.43 1018.11 1017.79 1017.50 1017.23 1016.99 1016.78 1016.62 1016.50
1017.38 1017.70 1018.06 1018.42 1018.75 1019.03 1019.24 1019.38 1019.48 1019.56 1019.65 1019.78 1019.96 1020.18 1020.44 1020.70 1020.94 1021.13 1021.25 1021.30 1021.28 1021.21 1021.11 1020.98 1020.84 1020.69 1020.53 1020.35 1020.14 1019.90 1019.62 1019.31 1018.98 1018.62 1018.26 1017.90 1017.56 1017.24 1016.95 1016.69 1016.47 1016.30 1016.16
1018.08 1018.41 1018.77 1019.13 1019.45 1019.73 1019.94 1020.08 1020.17 1020.23 1020.30 1020.39 1020.52 1020.69 1020.89 1021.09 1021.27 1021.41 1021.49 1021.51 1021.47 1021.39 1021.28 1021.14 1020.98 1020.81 1020.62 1020.40 1020.15 1019.86 1019.53 1019.17 1018.79 1018.39 1018.00 1017.62 1017.26 1016.93 1016.63 1016.37 1016.15 1015.96 1015.81
1018.68 1019.00 1019.34 1019.68 1020.00 1020.26 1020.47 1020.61 1020.70 1020.77 1020.83 1020.91 1021.02 1021.15 1021.30 1021.46 1021.60 1021.70 1021.76 1021.77 1021.73 1021.65 1021.53 1021.39 1021.22 1021.02 1020.78 1020.50 1020.18 1019.82 1019.41 1018.98 1018.53 1018.09 1017.66 1017.26 1016.90 1016.57 1016.29 1016.04 1015.82 1015.62 1015.45
1019.18 1019.47 1019.78 1020.09 1020.37 1020.62 1020.82 1020.96 1021.07 1021.15 1021.23 1021.31 1021.41 1021.53 1021.66 1021.79 1021.91 1021.99 1022.04 1022.06 1022.03 1021.96 1021.85 1021.71 1021.52 1021.29 1021.00 1020.65 1020.25 1019.79 1019.30 1018.78 1018.26 1017.76 1017.29 1016.88 1016.51 1016.19 1015.92 1015.68 1015.47 1015.28 1015.09
1019.60 1019.87 1020.13 1020.39 1020.64 1020.85 1021.03 1021.18 1021.30 1021.40 1021.50 1021.60 1021.71 1021.83 1021.96 1022.08 1022.18 1022.26 1022.31 1022.33 1022.32 1022.26 1022.17 1022.03 1021.83 1021.57 1021.23 1020.82 1020.34 1019.79 1019.21 1018.60 1018.01 1017.45 1016.95 1016.51 1016.13 1015.81 1015.55 1015.32 1015.11 1014.90 1014.70
1019.99 1020.22 1020.43 1020.65 1020.84 1021.02 1021.18 1021.32 1021.45 1021.57 1021.69 1021.82 1021.95 1022.08 1022.21 1022.32 1022.42 1022.49 1022.54 1022.56 1022.55 1022.51 1022.42 1022.29 1022.08 1021.80 1021.43 1020.97 1020.43 1019.81 1019.16 1018.48 1017.83 1017.22 1016.67 1016.20 1015.81 1015.48 1015.20 1014.96 1014.73 1014.51 1014.28
1020.37 1020.57 1020.75 1020.91 1021.06 1021.20 1021.33 1021.46 1021.59 1021.72 1021.87 1022.01 1022.16 1022.30 1022.43 1022.54 1022.62 1022.68 1022.71 1022.72 1022.70 1022.66 1022.57 1022.44 1022.23 1021.94 1021.55 1021.07 1020.50 1019.85 1019.15 1018.43 1017.74 1017.09 1016.51 1016.00 1015.58 1015.22 1014.91 1014.63 1014.36 1014.10 1013.83
1020.76 1020.95 1021.10 1021.22 1021.33 1021.43 1021.53 1021.63 1021.76 1021.89 1022.05 1022.21 1022.37 1022.52 1022.64 1022.73 1022.79 1022.82 1022.82 1022.80 1022.75 1022.69 1022.59 1022.45 1022.24 1021.95 1021.58 1021.10 1020.53 1019.88 1019.18 1018.46 1017.75 1017.08 1016.48 1015.94 1015.47 1015.07 1014.70 1014.36 1014.03 1013.70 1013.38
1021.14 1021.34 1021.47 1021.57 1021.64 1021.70 1021.77 1021.85 1021.96 1022.09 1022.25 1022.42 1022.58 1022.73 1022.84 1022.91 1022.93 1022.92 1022.87 1022.79 1022.71 1022.60 1022.48 1022.32 1022.12 1021.84 1021.49 1021.05 1020.51 1019.91 1019.24 1018.55 1017.85 1017.19 1016.57 1016.01 1015.50 1015.03 1014.60 1014.19 1013.78 1013.37 1012.97
1021.49 1021.70 1021.85 1021.93 1021.98 1022.00 1022.04 1022.09 1022.17 1022.30 1022.45 1022.62 1022.78 1022.92 1023.01 1023.05 1023.04 1022.97 1022.87 1022.73 1022.59 1022.43 1022.27 1022.10 1021.89 1021.64 1021.32 1020.93 1020.45 1019.91 1019.31 1018.67 1018.02 1017.38 1016.76 1016.18 1015.64 1015.12 1014.62 1014.12 1013.63 1013.14 1012.66
1021.75 1022.00 1022.15 1022.24 1022.27 1022.27 1022.27 1022.29 1022.36 1022.46 1022.61 1022.77 1022.93 1023.06 1023.14 1023.16 1023.11 1023.00 1022.84 1022.65 1022.44 1022.23 1022.03 1021.83 1021.62 1021.38 1021.10 1020.76 1020.36 1019.89 1019.36 1018.79 1018.20 1017.60 1017.01 1016.43 1015.86 1015.30 1014.74 1014.18 1013.62 1013.05 1012.50
1021.88 1022.17 1022.34 1022.43 1022.46 1022.44 1022.42 1022.42 1022.46 1022.55 1022.69 1022.85 1023.01 1023.14 1023.22 1023.22 1023.15 1023.00 1022.80 1022.56 1022.31 1022.05 1021.81 1021.58 1021.36 1021.14 1020.88 1020.59 1020.25 1019.85 1019.39 1018.89 1018.36 1017.81 1017.25 1016.69 1016.12 1015.54 1014.96 1014.36 1013.75 1013.13 1012.53
1021.87 1022.19 1022.39 1022.49 1022.51 1022.49 1022.46 1022.44 1022.47 1022.55 1022.68 1022.84 1023.00 1023.14 1023.22 1023.23 1023.15 1023.00 1022.77 1022.50 1022.21 1021.93 1021.65 1021.40 1021.17 1020.94 1020.71 1020.44 1020.14 1019.79 1019.39 1018.95 1018.48 1017.97 1017.45 1016.92 1016.37 1015.81 1015.22 1014.62 1014.00 1013.37 1012.75
Thickness
5728 5727 5725 5724 5724 5723 5723 5721 5721 5720 5719 5719 5718 5718 5717 5717 5716 5715 5714 5714 5713 5713 5712 5711 5710 5709 5708 5707 5707 5706 5705 5705 5704 5704 5703 5702 5702 5702 5701 5701 5701 5701 5701
5725 5723 5722 5720 5720 5720 5719 5718 5717 5716 5715 5715 5714 5714 5714 5713 5712 5712 5711 5710 5709 5709 5708 5707 5706 5705 5705 5704 5703 5702 5702 5702 5701 5701 5700 5699 5699 5698 5697 5697 5697 5697 5697
5722 5720 5718 5717 5716 5716 5715 5714 5713 5712 5711 5710 5710 5710 5709 5709 5708 5707 5707 5706 5705 5704 5704 5703 5702 5702 5701 5701 5700 5699 5699 5698 5697 5697 5697 5696 5695 5695 5694 5693 5693 5693 5693
5719 5717 5715 5714 5713 5712 5711 5710 5709 5707 5706 5705 5705 5705 5705 5704 5704 5703 5702 5701 5700 5700 5699 5698 5698 5698 5697 5697 5697 5696 5695 5694 5694 5693 5693 5692 5691 5690 5689 5689 5688 5688 5688
5716 5714 5712 5711 5710 5709 5707 5707 5704 5703 5701 5700 5700 5700 5700 5700 5700 5699 5698 5697 5696 5695 5695 5694 5694 5693 5693 5692 5692 5692 5691 5690 5690 5689 5689 5688 5687 5686 5685 5684 5683 5683 5683
5712 5711 5709 5708 5707 5705 5703 5702 5700 5699 5698 5697 5696 5695 5695 5695 5695 5694 5693 5692 5692 5691 5690 5689 5689 5689 5689 5688 5688 5688 5687 5686 5686 5685 5684 5684 5683 5682 5680 5679 5678 5678 5678
5709 5707 5706 5705 5704 5702 5700 5699 5697 5695 5693 5692 5690 5688 5689 5690 5691 5690 5689 5688 5687 5687 5686 5685 5684 5684 5683 5684 5684 5683 5682 5681 5681 5680 5679 5679 5678 5677 5676 5675 5674 5673 5672
5705 5705 5703 5702 5701 5699 5696 5695 5694 5691 5689 5688 5685 5682 5680 5681 5684 5686 5684 5683 5683 5682 5681 5680 5680 5679 5679 5678 5679 5678 5678 5677 5676 5676 5675 5674 5673 5672 5671 5670 5669 5668 5668
5702 5701 5699 5699 5697 5696 5694 5692 5691 5688 5685 5683 5683 5679 5675 5674 5675 5679 5680 5679 5678 5677 5677 5676 5676 5675 5674 5674 5673 5673 5673 5672 5672 5671 5670 5669 5668 5667 5666 5666 5665 5664 5663
5699 5697 5697 5696 5695 5693 5691 5689 5687 5686 5683 5679 5678 5677 5676 5675 5671 5671 5673 5674 5674 5673 5672 5672 5672 5671 5670 5669 5669 5669 5669 5668 5667 5666 5665 5664 5664 5662 5661 5660 5660 5659 5658
5695 5694 5693 5693 5692 5690 5687 5685 5684 5682 5680 5677 5675 5673 5671 5669 5669 5666 5666 5667 5668 5669 5669 5668 5668 5667 5666 5665 5665 5665 5664 5664 5663 5662 5661 5660 5659 5658 5657 5656 5655 5654 5653
5691 5690 5690 5689 5687 5686 5684 5683 5681 5679 5677 5675 5672 5670 5668 5667 5665 5663 5661 5661 5661 5664 5665 5665 5665 5664 5663 5662 5661 5661 5661 5660 5659 5658 5657 5656 5655 5654 5653 5652 5651 5649 5648
5686 5686 5686 5685 5683 5682 5681 5679 5677 5676 5674 5672 5669 5667 5666 5665 5664 5661 5659 5657 5656 5659 5660 5662 5661 5660 5659 5659 5658 5658 5657 5656 5656 5654 5653 5652 5651 5650 5648 5647 5646 5645 5644
5683 5682 5681 5680 5679 5678 5677 5675 5674 5672 5670 5668 5667 5665 5663 5662 5661 5659 5658 5655 5653 5653 5654 5656 5657 5657 5656 5655 5654 5654 5654 5653 5652 5651 5650 5649 5647 5646 5644 5642 5641 5639 5638
5680 5679 5677 5676 5675 5674 5673 5671 5669 5667 5666 5665 5663 5662 5660 5660 5658 5657 5655 5653 5650 5648 5650 5651 5651 5652 5651 5651 5650 5649 5649 5648 5648 5646 5646 5645 5643 5642 5640 5637 5635 5634 5633
5676 5675 5673 5672 5671 5669 5668 5666 5665 5663 5662 5661 5659 5658 5657 5656 5655 5654 5652 5650 5648 5646 5645 5647 5646 5647 5646 5646 5645 5644 5644 5643 5643 5643 5642 5640 5639 5638 5636 5633 5631 5629 5628
5673 5671 5670 5668 5667 5665 5664 5662 5661 5660 5658 5657 5656 5655 5654 5653 5651 5650 5648 5646 5644 5643 5641 5642 5641 5641 5640 5640 5640 5639 5639 5638 5638 5638 5637 5636 5635 5634 5632 5630 5628 5625 5624
5668 5667 5665 5664 5663 5662 5660 5659 5657 5656 5655 5653 5652 5651 5650 5650 5648 5647 5645 5643 5641 5639 5638 5637 5636 5635 5635 5635 5634 5634 5634 5634 5633 5634 5633 5632 5631 5629 5627 5625 5623 5621 5620
5663 5662 5660 5659 5658 5657 5656 5655 5654 5652 5651 5650 5649 5648 5647 5646 5644 5643 5641 5639 5638 5636 5633 5632 5631 5630 5629 5629 5628 5628 5628 5628 5629 5628 5628 5627 5626 5624 5623 5621 5619 5617 5615
5659 5658 5656 5654 5654 5653 5652 5651 5649 5648 5647 5646 5645 5645 5644 5643 5642 5640 5638 5636 5634 5632 5630 5628 5626 5625 5623 5622 5622 5622 5622 5622 5622 5622 5622 5622 5620 5619 5617 5616 5615 5613 5611
5655 5653 5651 5649 5649 5648 5648 5646 5645 5644 5643 5642 5641 5641 5641 5641 5640 5639 5637 5634 5631 5629 5627 5625 5623 5621 5619 5618 5617 5616 5616 5615 5616 5615 5615 5616 5615 5614 5612 5610 5609 5607 5605
5648 5646 5645 5644 5643 5644 5643 5642 5641 5639 5639 5638 5638 5638 5637 5637 5637 5636 5634 5632 5629 5627 5625 5622 5620 5618 5616 5614 5612 5611 5610 5609 5610 5610 5609 5609 5609 5608 5606 5605 5604 5602 5600
5643 5640 5639 5638 5637 5638 5637 5637 5636 5635 5634 5634 5634 5633 5633 5634 5633 5632 5630 5628 5626 5625 5624 5621 5618 5616 5614 5612 5609 5607 5605 5604 5604 5604 5602 5604 5603 5602 5602 5601 5598 5597 5595
5637 5636 5634 5634 5633 5633 5632 5631 5631 5630 5629 5629 5629 5629 5628 5629 5629 5627 5626 5623 5622 5621 5620 5618 5617 5615 5612 5610 5607 5604 5602 5600 5599 5597 5595 5597 5598 5597 5597 5595 5594 5591 5590
5632 5631 5630 5629 5628 5628 5627 5627 5626 5625 5624 5624 5625 5624 5624 5625 5624 5623 5620 5618 5617 5617 5616 5615 5613 5611 5608 5606 5603 5599 5597 5596 5596 5595 5592 5591 5593 5592 5591 5591 5589 5587 5585
5628 5626 5625 5624 5624 5624 5624 5622 5621 5620 5620 5620 5620 5620 5620 5620 5619 5618 5616 5614 5613 5613 5611 5609 5607 5605 5603 5601 5599 5597 5595 5592 5591 5591 5589 5587 5587 5585 5586 5586 5584 5582 5580